Terug naar catalogus

DGS 2-02

ActiefWetenschapSSO
NORAD 65261·PAYLOAD·🇨🇳 China
Deze satellietnaam is nog niet bevestigd door officiële bronnen.

Gelanceerd Aug 19, 2025 vanaf Jiuquan Satellite Launch Center

Loading…

Volgende Passages (komende 24 uur)

TLE

VersSource: Space-Track

Epoch: Sep 14, 2026, 14:01 UTC

1 65261U 25180C   26257.58439190  .00003778  00000-0  19967-3 0  9997
2 65261  97.5356  23.9411 0013917  18.3629 341.8103 15.16019006 59202

Volg DGS 2-02 in realtime met AllMySat

Download on the App Store